| time (UTC) | temp F | wind direction | speed knots | gust knots | rain 1hr in | rain 24hr in | rain mn in | humidity % | barometer mb |
| 20260503200534 | 49 | 186 | 2.6 | 6.1 | 0.00 | 0.00 | 0.00 | 85 | 1008.3 |
| 20260503200051 | 49 | 207 | 2.6 | 6.1 | 0.00 | 0.00 | 0.00 | 85 | 1008.3 |
| 20260503195535 | 49 | 227 | 3.5 | 6.1 | 0.00 | 0.00 | 0.00 | 85 | 1008.3 |
| 20260503195035 | 49 | 186 | 3.5 | 8.7 | 0.00 | 0.00 | 0.00 | 86 | 1008.3 |
| 20260503194547 | 49 | 180 | 3.5 | 8.7 | 0.00 | 0.00 | 0.00 | 86 | 1008.3 |
| 20260503194035 | 49 | 200 | 3.5 | 6.1 | 0.00 | 0.00 | 0.00 | 86 | 1008.3 |
| 20260503193536 | 49 | 176 | 3.5 | 6.1 | 0.00 | 0.00 | 0.00 | 86 | 1008.5 |
| 20260503193050 | 49 | 260 | 1.7 | 10.4 | 0.00 | 0.00 | 0.00 | 86 | 1008.5 |
| 20260503192533 | 49 | 191 | 3.5 | 10.4 | 0.00 | 0.00 | 0.00 | 86 | 1008.5 |
| 20260503192035 | 49 | 143 | 1.7 | 7.0 | 0.00 | 0.00 | 0.00 | 86 | 1008.3 |
| 20260503191541 | 50 | 176 | 2.6 | 6.1 | 0.00 | 0.00 | 0.00 | 86 | 1008.5 |
| 20260503191035 | 49 | 97 | 2.6 | 6.1 | 0.00 | 0.00 | 0.00 | 86 | 1008.5 |
| 20260503190536 | 50 | 132 | 2.6 | 6.1 | 0.00 | 0.00 | 0.00 | 86 | 1008.5 |
| 20260503190037 | 50 | 183 | 2.6 | 6.1 | 0.00 | 0.00 | 0.00 | 85 | 1008.3 |
| 20260503185534 | 50 | 252 | 1.7 | 6.1 | 0.00 | 0.00 | 0.00 | 86 | 1008.3 |
| 20260503185035 | 50 | 118 | 2.6 | 6.1 | 0.00 | 0.00 | 0.00 | 85 | 1008.4 |
| 20260503184550 | 50 | 103 | 1.7 | 6.1 | 0.00 | 0.00 | 0.00 | 85 | 1008.3 |
| 20260503184040 | 50 | 213 | 1.7 | 6.1 | 0.00 | 0.00 | 0.00 | 85 | 1008.3 |
| 20260503183535 | 50 | 191 | 2.6 | 7.0 | 0.00 | 0.00 | 0.00 | 84 | 1008.3 |
| 20260503183100 | 50 | 115 | 3.5 | 9.6 | 0.00 | 0.00 | 0.00 | 85 | 1008.3 |
| 20260503182536 | 50 | 166 | 1.7 | 9.6 | 0.00 | 0.00 | 0.00 | 84 | 1008.4 |
| 20260503182035 | 50 | 115 | 2.6 | 9.6 | 0.00 | 0.00 | 0.00 | 84 | 1008.3 |
| 20260503181540 | 50 | 131 | 2.6 | 7.0 | 0.00 | 0.00 | 0.00 | 83 | 1008.3 |
| 20260503181035 | 50 | 115 | 1.7 | 7.0 | 0.00 | 0.00 | 0.00 | 83 | 1008.3 |
| 20260503180535 | 50 | 179 | 3.5 | 7.0 | 0.00 | 0.00 | 0.00 | 83 | 1008.3 |
| 20260503180046 | 50 | 90 | 3.5 | 7.8 | 0.00 | 0.00 | 0.00 | 83 | 1008.3 |
| 20260503175534 | 51 | 114 | 3.5 | 7.8 | 0.00 | 0.00 | 0.00 | 83 | 1008.3 |
| 20260503175036 | 51 | 151 | 2.6 | 7.0 | 0.00 | 0.00 | 0.00 | 82 | 1008.2 |
| 20260503174547 | 51 | 155 | 1.7 | 7.0 | 0.00 | 0.00 | 0.00 | 82 | 1008.3 |
| 20260503174035 | 51 | 161 | 3.5 | 9.6 | 0.00 | 0.00 | 0.00 | 81 | 1008.3 |
| 20260503173535 | 51 | 160 | 4.3 | 9.6 | 0.00 | 0.00 | 0.00 | 80 | 1008.2 |
| 20260503173112 | 51 | 192 | 1.7 | 7.8 | 0.00 | 0.00 | 0.00 | 79 | 1008.1 |
| 20260503172536 | 52 | 200 | 3.5 | 7.0 | 0.00 | 0.00 | 0.00 | 79 | 1008.3 |
| 20260503172034 | 52 | 214 | 2.6 | 6.1 | 0.00 | 0.00 | 0.00 | 79 | 1008.3 |
| 20260503171535 | 52 | 101 | 2.6 | 7.0 | 0.00 | 0.00 | 0.00 | 78 | 1008.3 |
| 20260503171034 | 52 | 102 | 1.7 | 7.0 | 0.00 | 0.00 | 0.00 | 78 | 1008.3 |
| 20260503170534 | 52 | 138 | 3.5 | 7.0 | 0.00 | 0.00 | 0.00 | 77 | 1008.6 |
| 20260503150535 | 54 | 86 | 3.5 | 9.6 | 0.00 | 0.03 | 0.00 | 66 | 1009.2 |
| 20260503131037 | 54 | 252 | 3.5 | 7.8 | 0.00 | 0.03 | 0.00 | 63 | 1010.6 |
| 20260503130536 | 54 | 103 | 3.5 | 7.8 | 0.00 | 0.03 | 0.00 | 61 | 1010.7 |
| 20260503110534 | 52 | 96 | 0.9 | 6.1 | 0.00 | 0.03 | 0.00 | 66 | 1011.5 |
| 20260503081541 | 49 | 143 | 0.9 | 10.4 | 0.00 | 0.03 | 0.00 | 70 | 1011.9 |
| 20260503081035 | 49 | 127 | 4.3 | 10.4 | 0.00 | 0.03 | 0.00 | 71 | 1011.9 |
| 20260503080538 | 49 | 253 | 0.9 | 5.2 | 0.00 | 0.03 | 0.00 | 69 | 1011.8 |
| 20260503072535 | 48 | 70 | 0.9 | 4.3 | 0.00 | 0.03 | 0.00 | 73 | 1011.7 |
| 20260503072035 | 48 | 132 | 0.9 | 4.3 | 0.00 | 0.03 | 0.00 | 74 | 1011.7 |
| 20260503071548 | 48 | 60 | 0.9 | 4.3 | 0.00 | 0.03 | 0.00 | 74 | 1011.6 |
| 20260503071034 | 48 | 314 | 0.0 | 2.6 | 0.00 | 0.03 | 0.00 | 74 | 1011.5 |
| 20260503070534 | 47 | 0 | 0.0 | 3.5 | 0.00 | 0.03 | 0.00 | 74 | 1011.4 |
| 20260503055034 | 47 | 3 | 1.7 | 6.1 | 0.00 | 0.03 | 0.00 | 78 | 1010.8 |
| 20260503054545 | 47 | 60 | 0.9 | 6.1 | 0.00 | 0.03 | 0.00 | 77 | 1010.9 |
| 20260503054035 | 47 | 336 | 0.9 | 6.1 | 0.00 | 0.03 | 0.00 | 77 | 1010.9 |
| 20260503053537 | 47 | 1 | 2.6 | 7.0 | 0.00 | 0.03 | 0.00 | 77 | 1010.9 |
| 20260503053045 | 47 | 345 | 2.6 | 7.0 | 0.00 | 0.03 | 0.00 | 78 | 1010.8 |
| 20260503052534 | 47 | 323 | 1.7 | 4.3 | 0.00 | 0.03 | 0.00 | 78 | 1010.8 |
| 20260503052033 | 47 | 319 | 0.9 | 4.3 | 0.00 | 0.03 | 0.00 | 80 | 1010.8 |
| 20260503051541 | 46 | 321 | 0.0 | 4.3 | 0.00 | 0.03 | 0.00 | 81 | 1010.8 |
| 20260503051034 | 46 | 345 | 2.6 | 4.3 | 0.00 | 0.03 | 0.00 | 82 | 1010.7 |
| 20260503050535 | 46 | 340 | 1.7 | 4.3 | 0.00 | 0.03 | 0.00 | 83 | 1010.7 |
| 20260503050041 | 46 | 0 | 1.7 | 7.8 | 0.00 | 0.03 | 0.00 | 83 | 1010.7 |
| 20260503045536 | 46 | 345 | 3.5 | 7.8 | 0.00 | 0.03 | 0.00 | 84 | 1010.6 |
| 20260503045038 | 46 | 8 | 4.3 | 7.8 | 0.00 | 0.03 | 0.00 | 84 | 1010.5 |
| 20260503044545 | 46 | 332 | 2.6 | 5.2 | 0.00 | 0.03 | 0.00 | 84 | 1010.5 |
| 20260503044033 | 46 | 351 | 3.5 | 6.1 | 0.00 | 0.03 | 0.00 | 84 | 1010.6 |
| 20260503043535 | 46 | 350 | 2.6 | 6.1 | 0.00 | 0.03 | 0.00 | 84 | 1010.7 |
| 20260503043042 | 46 | 345 | 2.6 | 5.2 | 0.00 | 0.03 | 0.00 | 84 | 1010.7 |
| 20260503042534 | 46 | 334 | 2.6 | 4.3 | 0.00 | 0.03 | 0.00 | 84 | 1010.7 |
| 20260503042033 | 46 | 316 | 1.7 | 4.3 | 0.00 | 0.03 | 0.00 | 84 | 1010.6 |
| 20260503041538 | 46 | 332 | 0.0 | 2.6 | 0.00 | 0.03 | 0.00 | 84 | 1010.6 |
| 20260503041035 | 46 | 347 | 0.9 | 2.6 | 0.00 | 0.03 | 0.00 | 83 | 1010.6 |
| 20260503040534 | 46 | 322 | 0.9 | 3.5 | 0.00 | 0.03 | 0.00 | 83 | 1010.5 |
| 20260503040054 | 46 | 340 | 0.9 | 5.2 | 0.00 | 0.03 | 0.00 | 83 | 1010.5 |
| 20260503035534 | 46 | 9 | 1.7 | 5.2 | 0.00 | 0.03 | 0.00 | 83 | 1010.4 |
| 20260503035034 | 46 | 342 | 2.6 | 5.2 | 0.00 | 0.03 | 0.00 | 83 | 1010.6 |
| 20260503034603 | 46 | 334 | 0.9 | 2.6 | 0.00 | 0.03 | 0.00 | 82 | 1010.4 |
| 20260503034034 | 46 | 0 | 0.0 | 2.6 | 0.00 | 0.03 | 0.00 | 82 | 1010.4 |
| 20260503033533 | 46 | 326 | 0.0 | 1.7 | 0.00 | 0.03 | 0.00 | 81 | 1010.3 |
| 20260503033043 | 46 | 0 | 0.0 | 4.3 | 0.00 | 0.03 | 0.00 | 81 | 1010.2 |
| 20260503032534 | 47 | 0 | 0.0 | 4.3 | 0.00 | 0.03 | 0.00 | 80 | 1010.2 |
| 20260503032034 | 47 | 0 | 0.0 | 7.0 | 0.00 | 0.03 | 0.00 | 80 | 1010.1 |
| 20260503031541 | 47 | 0 | 0.9 | 7.0 | 0.00 | 0.03 | 0.00 | 79 | 1010.1 |
| 20260503031034 | 47 | 330 | 3.5 | 7.0 | 0.00 | 0.03 | 0.00 | 80 | 1009.9 |
| 20260503030534 | 46 | 360 | 0.9 | 6.1 | 0.00 | 0.03 | 0.00 | 80 | 1009.8 |
| 20260503030053 | 46 | 352 | 2.6 | 6.1 | 0.00 | 0.03 | 0.00 | 80 | 1009.8 |
| 20260503025533 | 46 | 44 | 2.6 | 6.1 | 0.00 | 0.03 | 0.00 | 79 | 1009.8 |
| 20260503025033 | 46 | 342 | 1.7 | 3.5 | 0.00 | 0.03 | 0.00 | 79 | 1009.8 |
| 20260503024548 | 46 | 27 | 0.0 | 2.6 | 0.00 | 0.03 | 0.00 | 79 | 1009.8 |
| 20260503024033 | 46 | 30 | 0.0 | 3.5 | 0.00 | 0.03 | 0.00 | 79 | 1009.7 |
| 20260503023535 | 46 | 44 | 0.9 | 5.2 | 0.00 | 0.03 | 0.00 | 80 | 1009.8 |
| 20260503023044 | 47 | 0 | 0.9 | 6.1 | 0.00 | 0.03 | 0.00 | 80 | 1009.7 |
| 20260503022534 | 46 | 4 | 2.6 | 6.1 | 0.00 | 0.03 | 0.00 | 80 | 1009.7 |
| 20260503022036 | 46 | 355 | 0.9 | 4.3 | 0.00 | 0.03 | 0.00 | 81 | 1009.6 |
| 20260503021544 | 46 | 58 | 0.9 | 5.2 | 0.00 | 0.03 | 0.00 | 82 | 1009.7 |
| 20260503021034 | 46 | 33 | 0.9 | 5.2 | 0.00 | 0.03 | 0.00 | 82 | 1009.6 |
| 20260503020534 | 46 | 357 | 1.7 | 4.3 | 0.00 | 0.03 | 0.00 | 81 | 1009.6 |
| 20260503020042 | 46 | 345 | 1.7 | 3.5 | 0.00 | 0.03 | 0.00 | 81 | 1009.7 |
| 20260503015533 | 46 | 355 | 0.9 | 3.5 | 0.00 | 0.03 | 0.00 | 82 | 1009.5 |
| 20260503015033 | 46 | 18 | 0.0 | 3.5 | 0.00 | 0.03 | 0.00 | 82 | 1009.6 |
| 20260503014549 | 46 | 8 | 0.0 | 3.5 | 0.00 | 0.03 | 0.00 | 82 | 1009.5 |
| 20260503014035 | 46 | 327 | 0.9 | 3.5 | 0.00 | 0.03 | 0.00 | 82 | 1009.6 |
| 20260503013534 | 46 | 0 | 0.9 | 3.5 | 0.00 | 0.03 | 0.00 | 82 | 1009.6 |
| 20260503013038 | 46 | 0 | 0.9 | 2.6 | 0.00 | 0.03 | 0.00 | 83 | 1009.6 |
| 20260503012535 | 46 | 0 | 0.0 | 1.7 | 0.00 | 0.03 | 0.00 | 84 | 1009.5 |
| 20260503012035 | 46 | 1 | 0.0 | 2.6 | 0.00 | 0.03 | 0.00 | 84 | 1009.7 |
| 20260503011545 | 46 | 0 | 0.0 | 3.5 | 0.00 | 0.03 | 0.00 | 85 | 1009.7 |
| 20260503011033 | 46 | 0 | 0.0 | 5.2 | 0.00 | 0.03 | 0.00 | 85 | 1009.8 |
| 20260503010534 | 46 | 360 | 1.7 | 6.1 | 0.00 | 0.03 | 0.00 | 85 | 1009.8 |
| 20260503010045 | 46 | 349 | 3.5 | 6.1 | 0.00 | 0.03 | 0.00 | 86 | 1009.8 |
| 20260503005537 | 46 | 348 | 4.3 | 6.1 | 0.00 | 0.03 | 0.00 | 87 | 1009.6 |
| 20260503005037 | 44 | 8 | 3.5 | 5.2 | 0.00 | 0.03 | 0.00 | 90 | 1009.6 |
| 20260503004605 | 44 | 345 | 2.6 | 4.3 | 0.00 | 0.03 | 0.00 | 91 | 1009.5 |
| 20260503004035 | 44 | 347 | 2.6 | 3.5 | 0.00 | 0.03 | 0.00 | 91 | 1009.5 |
| 20260503003534 | 44 | 332 | 1.7 | 2.6 | 0.00 | 0.03 | 0.00 | 91 | 1009.6 |
| 20260503003039 | 44 | 323 | 0.0 | 1.7 | 0.00 | 0.03 | 0.00 | 91 | 1009.5 |
| 20260503002535 | 44 | 0 | 0.0 | 1.7 | 0.00 | 0.03 | 0.00 | 91 | 1009.6 |
| 20260503002035 | 44 | 0 | 0.0 | 1.7 | 0.00 | 0.03 | 0.00 | 91 | 1009.6 |
| 20260503001538 | 44 | 348 | 0.9 | 1.7 | 0.00 | 0.03 | 0.00 | 91 | 1009.7 |
| 20260503001035 | 44 | 311 | 0.0 | 0.0 | 0.00 | 0.03 | 0.00 | 91 | 1009.9 |
| 20260503000533 | 44 | 0 | 0.0 | 0.0 | 0.00 | 0.03 | 0.00 | 90 | 1009.7 |
| 20260503000040 | 44 | 0 | 0.0 | 0.0 | 0.00 | 0.03 | 0.00 | 90 | 1009.6 |
| 20260502235536 | 44 | 0 | 0.0 | 0.0 | 0.00 | 0.03 | 0.00 | 90 | 1009.5 |
| 20260502235033 | 44 | 0 | 0.0 | 0.0 | 0.00 | 0.03 | 0.00 | 89 | 1009.5 |
| 20260502234545 | 45 | 0 | 0.0 | 0.0 | 0.00 | 0.03 | 0.00 | 89 | 1009.5 |
| 20260502234035 | 45 | 0 | 0.0 | 0.0 | 0.00 | 0.03 | 0.00 | 88 | 1009.5 |
| 20260502233533 | 46 | 0 | 0.0 | 0.0 | 0.00 | 0.03 | 0.00 | 88 | 1009.4 |
| 20260502233045 | 46 | 0 | 0.0 | 0.0 | 0.00 | 0.03 | 0.00 | 87 | 1009.3 |
| 20260502232533 | 46 | 0 | 0.0 | 0.0 | 0.00 | 0.03 | 0.00 | 87 | 1009.4 |
| 20260502232034 | 46 | 0 | 0.0 | 0.9 | 0.00 | 0.03 | 0.00 | 87 | 1009.5 |
| 20260502231543 | 46 | 0 | 0.0 | 0.9 | 0.00 | 0.03 | 0.00 | 86 | 1009.6 |
| 20260502231035 | 47 | 0 | 0.0 | 0.0 | 0.00 | 0.03 | 0.00 | 85 | 1009.7 |
| 20260502230534 | 47 | 0 | 0.0 | 0.9 | 0.00 | 0.03 | 0.00 | 85 | 1009.7 |
| 20260502230041 | 47 | 0 | 0.0 | 1.7 | 0.00 | 0.03 | 0.00 | 84 | 1009.7 |
| 20260502225534 | 48 | 339 | 0.0 | 1.7 | 0.00 | 0.03 | 0.00 | 83 | 1009.6 |
| 20260502225033 | 47 | 326 | 0.0 | 1.7 | 0.00 | 0.03 | 0.00 | 83 | 1009.9 |
| 20260502224535 | 48 | 325 | 0.0 | 0.9 | 0.00 | 0.03 | 0.00 | 84 | 1009.8 |
| 20260502224034 | 48 | 322 | 0.0 | 1.7 | 0.00 | 0.03 | 0.00 | 84 | 1009.8 |
| 20260502223534 | 48 | 319 | 0.0 | 1.7 | 0.00 | 0.03 | 0.00 | 84 | 1009.8 |
| 20260502223047 | 48 | 319 | 0.9 | 1.7 | 0.00 | 0.03 | 0.00 | 86 | 1010.0 |
| 20260502222533 | 48 | 307 | 0.0 | 0.9 | 0.00 | 0.03 | 0.00 | 85 | 1009.9 |
| 20260502222035 | 48 | 0 | 0.0 | 0.0 | 0.00 | 0.03 | 0.00 | 86 | 1009.9 |
| 20260502221544 | 48 | 0 | 0.0 | 0.0 | 0.00 | 0.03 | 0.00 | 86 | 1009.8 |
| 20260502221033 | 48 | 0 | 0.0 | 0.9 | 0.00 | 0.03 | 0.00 | 86 | 1009.8 |
| 20260502220533 | 48 | 0 | 0.0 | 0.9 | 0.00 | 0.03 | 0.00 | 85 | 1009.8 |
| 20260502220050 | 48 | 0 | 0.0 | 0.0 | 0.00 | 0.03 | 0.00 | 86 | 1009.9 |
| 20260502215533 | 48 | 0 | 0.0 | 0.0 | 0.00 | 0.03 | 0.03 | 85 | 1009.9 |
| 20260502215032 | 48 | 0 | 0.0 | 0.0 | 0.00 | 0.03 | 0.03 | 86 | 1009.9 |
| 20260502214547 | 48 | 0 | 0.0 | 0.9 | 0.00 | 0.03 | 0.03 | 87 | 1009.8 |
| 20260502214034 | 49 | 0 | 0.0 | 0.9 | 0.00 | 0.03 | 0.03 | 87 | 1009.8 |
| 20260502213534 | 49 | 0 | 0.0 | 0.0 | 0.00 | 0.03 | 0.03 | 86 | 1009.8 |
| 20260502213047 | 48 | 0 | 0.0 | 0.0 | 0.00 | 0.03 | 0.03 | 86 | 1009.9 |
| 20260502212534 | 49 | 0 | 0.0 | 0.9 | 0.00 | 0.03 | 0.03 | 86 | 1009.8 |
| 20260502212034 | 48 | 0 | 0.0 | 0.9 | 0.00 | 0.03 | 0.03 | 86 | 1009.8 |
| 20260502211546 | 49 | 0 | 0.0 | 0.9 | 0.00 | 0.03 | 0.03 | 87 | 1009.8 |
| 20260502211033 | 49 | 0 | 0.0 | 0.9 | 0.00 | 0.03 | 0.03 | 85 | 1009.8 |
| 20260502210533 | 49 | 334 | 0.0 | 0.0 | 0.00 | 0.03 | 0.03 | 84 | 1009.9 |
| 20260502210038 | 49 | 0 | 0.0 | 0.0 | 0.00 | 0.03 | 0.03 | 84 | 1009.8 |
| 20260502205534 | 49 | 0 | 0.0 | 0.0 | 0.00 | 0.03 | 0.03 | 82 | 1009.8 |
| 20260502205036 | 49 | 0 | 0.0 | 0.0 | 0.00 | 0.03 | 0.03 | 83 | 1009.7 |
| 20260502204545 | 49 | 0 | 0.0 | 0.0 | 0.00 | 0.03 | 0.03 | 82 | 1009.7 |
| 20260502204033 | 49 | 0 | 0.0 | 0.9 | 0.00 | 0.03 | 0.03 | 82 | 1009.7 |
| 20260502203532 | 50 | 0 | 0.0 | 4.3 | 0.00 | 0.03 | 0.03 | 79 | 1009.8 |
| 20260502203049 | 50 | 338 | 1.7 | 4.3 | 0.00 | 0.03 | 0.03 | 78 | 1009.7 |
| 20260502202534 | 50 | 355 | 2.6 | 4.3 | 0.00 | 0.03 | 0.03 | 79 | 1009.7 |
| 20260502202036 | 50 | 4 | 0.9 | 2.6 | 0.00 | 0.03 | 0.03 | 79 | 1009.8 |
| 20260502201539 | 50 | 330 | 0.0 | 0.9 | 0.00 | 0.03 | 0.03 | 80 | 1009.8 |
| 20260502201034 | 50 | 0 | 0.0 | 0.9 | 0.00 | 0.03 | 0.03 | 80 | 1009.8 |